Location: Echo Hill Outdoor School
(39.3621°N, 76.1137°W)
Time: 23:06:49
(UTC-05:00)

OTV 5 (USA 277) - Visible Passes

Search period start: 17 January 2018 00:00
Search period end: 27 January 2018 00:00
Orbit: 404 x 417 km, 43.0° (Epoch: 07 September)

Date Brightness Start Highest point End Pass type
(mag) Time Alt. Az. Time Alt. Az. Time Alt. Az.
20 Jan ? 18:47:47 10° S 18:48:59 14° SSE 18:48:59 14° SSE visible
21 Jan ? 19:32:25 10° SW 19:33:24 18° SW 19:33:24 18° SW visible
22 Jan ? 18:41:37 10° SW 18:44:42 35° SSE 18:44:58 34° SE visible
23 Jan ? 17:51:01 10° SSW 17:53:44 23° SSE 17:56:29 10° E visible
23 Jan ? 19:27:28 10° WSW 19:29:15 29° W 19:29:15 29° W visible
24 Jan ? 18:36:24 10° WSW 18:39:46 78° SSE 18:40:43 44° E visible
25 Jan ? 17:45:26 10° SW 17:48:44 53° SSE 17:52:02 10° ENE visible
25 Jan ? 19:22:48 10° W 19:24:54 32° WNW 19:24:54 32° WNW visible
26 Jan ? 18:31:38 10° W 18:34:58 59° NNW 18:36:18 32° NE visible
